User: anonymous   Login
Location: Unspecified
(0.0000°N, 0.0000°E)
Time: 16:29:36
(UTC+00:00)
Language:

Tiangong 2 - Orbit

View from above orbital plane
View from above orbital plane
View from above satellite
View from above satellite

Ground track
Ground track

The orbit data is extracted from the following two-line orbital elements,

1 41765U 16057A   19141.46307413  .00003118  00000-0  39730-4 0  9995
2 41765  42.7815 126.2596 0006454  75.1707  66.7184 15.61562826152865
Epoch (UTC): 21 May 2019 11:06:49
Eccentricity: 0.0006454
inclination: 42.7815°
perigee height: 379 km
apogee height: 387 km
right ascension of ascending node: 126.2596°
argument of perigee: 75.1707°
revolutions per day: 15.61562826
mean anomaly at epoch: 66.7184°
orbit number at epoch: 15286

The dashed part of the orbit path shows where the satellite is in the earth's shadow,  

DLR